Time,TemperatureF,DewpointF,PressureIn,WindDirection,WindDirectionDegrees,WindSpeedMPH,WindSpeedGustMPH,Humidity,HourlyPrecipIn,Conditions,Clouds,dailyrainin,SoftwareType,DateUTC
2017-10-21 00:04:00,77.9,77.0,30.10,East,90,2.0,5.0,97,0.00,,,0.00,Rainwise IP-100,2017-10-21 04:04:00,
2017-10-21 00:09:00,77.9,77.0,30.10,East,90,0.0,4.0,97,0.00,,,0.00,Rainwise IP-100,2017-10-21 04:09:00,
2017-10-21 00:14:00,77.9,77.0,30.10,NE,45,0.0,2.0,99,0.00,,,0.00,Rainwise IP-100,2017-10-21 04:14:00,
2017-10-21 00:19:00,77.9,78.0,30.10,NE,45,0.0,5.0,100,0.00,,,0.00,Rainwise IP-100,2017-10-21 04:19:00,
2017-10-21 00:24:00,77.9,78.0,30.09,East,90,2.0,3.0,100,0.00,,,0.00,Rainwise IP-100,2017-10-21 04:24:00,
2017-10-21 00:29:00,77.9,78.0,30.09,East,90,1.0,2.0,100,0.00,,,0.00,Rainwise IP-100,2017-10-21 04:29:00,
2017-10-21 00:34:00,77.7,77.0,30.09,ENE,67,1.0,2.0,100,0.00,,,0.00,Rainwise IP-100,2017-10-21 04:34:00,
2017-10-21 00:39:00,77.7,77.0,30.09,East,90,0.0,2.0,98,0.00,,,0.00,Rainwise IP-100,2017-10-21 04:39:00,
2017-10-21 00:44:00,77.6,77.0,30.09,East,90,1.0,4.0,100,0.00,,,0.00,Rainwise IP-100,2017-10-21 04:44:00,
2017-10-21 00:49:00,77.5,77.0,30.09,NE,45,1.0,3.0,100,0.00,,,0.00,Rainwise IP-100,2017-10-21 04:49:00,
2017-10-21 00:54:00,77.5,77.0,30.08,East,90,3.0,3.0,100,0.00,,,0.00,Rainwise IP-100,2017-10-21 04:54:00,
2017-10-21 00:59:00,77.7,77.0,30.08,East,90,0.0,4.0,100,0.00,,,0.00,Rainwise IP-100,2017-10-21 04:59:00,
2017-10-21 01:04:00,77.6,77.0,30.08,East,90,0.0,2.0,100,0.00,,,0.00,Rainwise IP-100,2017-10-21 05:04:00,
2017-10-21 01:10:00,77.6,77.0,30.08,East,90,1.0,3.0,100,0.00,,,0.00,Rainwise IP-100,2017-10-21 05:10:00,
2017-10-21 01:15:00,77.7,77.0,30.08,ENE,67,1.0,2.0,100,0.00,,,0.00,Rainwise IP-100,2017-10-21 05:15:00,
2017-10-21 01:20:00,77.7,77.0,30.08,East,90,0.0,4.0,100,0.00,,,0.00,Rainwise IP-100,2017-10-21 05:20:00,
2017-10-21 01:25:00,77.6,77.0,30.08,ENE,67,2.0,2.0,99,0.00,,,0.00,Rainwise IP-100,2017-10-21 05:25:00,
2017-10-21 01:30:00,77.6,76.0,30.08,NE,45,1.0,2.0,97,0.00,,,0.00,Rainwise IP-100,2017-10-21 05:30:00,
2017-10-21 01:35:00,77.8,76.0,30.08,ENE,67,2.0,2.0,97,0.00,,,0.00,Rainwise IP-100,2017-10-21 05:35:00,
2017-10-21 01:40:00,78.0,78.0,30.08,NE,45,1.0,4.0,100,0.00,,,0.00,Rainwise IP-100,2017-10-21 05:40:00,
2017-10-21 01:45:00,78.2,78.0,30.08,ENE,67,2.0,3.0,100,0.00,,,0.00,Rainwise IP-100,2017-10-21 05:45:00,
2017-10-21 01:51:00,78.2,78.0,30.08,East,90,2.0,4.0,100,0.00,,,0.00,Rainwise IP-100,2017-10-21 05:51:00,
2017-10-21 01:56:00,78.2,78.0,30.08,South,180,1.0,4.0,99,0.00,,,0.00,Rainwise IP-100,2017-10-21 05:56:00,
2017-10-21 02:01:00,78.2,77.0,30.08,NE,45,0.0,6.0,96,0.00,,,0.00,Rainwise IP-100,2017-10-21 06:01:00,
2017-10-21 02:06:00,78.3,78.0,30.08,South,180,0.0,6.0,99,0.00,,,0.00,Rainwise IP-100,2017-10-21 06:06:00,
2017-10-21 02:11:00,78.2,78.0,30.07,East,90,2.0,6.0,100,0.00,,,0.00,Rainwise IP-100,2017-10-21 06:11:00,
2017-10-21 02:16:00,78.2,78.0,30.07,East,90,2.0,3.0,99,0.00,,,0.00,Rainwise IP-100,2017-10-21 06:16:00,
2017-10-21 02:21:00,78.3,77.0,30.07,ENE,67,1.0,6.0,96,0.00,,,0.00,Rainwise IP-100,2017-10-21 06:21:00,
2017-10-21 02:26:00,78.3,76.0,30.07,East,90,0.0,6.0,94,0.00,,,0.00,Rainwise IP-100,2017-10-21 06:26:00,
2017-10-21 02:31:00,78.2,77.0,30.07,East,90,1.0,4.0,98,0.00,,,0.00,Rainwise IP-100,2017-10-21 06:31:00,
2017-10-21 02:36:00,78.1,77.0,30.06,ENE,67,2.0,3.0,98,0.00,,,0.00,Rainwise IP-100,2017-10-21 06:36:00,
2017-10-21 02:41:00,78.1,78.0,30.06,East,90,1.0,2.0,100,0.00,,,0.00,Rainwise IP-100,2017-10-21 06:41:00,
2017-10-21 02:46:00,78.0,78.0,30.06,ENE,67,1.0,4.0,100,0.00,,,0.00,Rainwise IP-100,2017-10-21 06:46:00,
2017-10-21 02:51:00,77.9,78.0,30.06,South,180,2.0,3.0,100,0.00,,,0.00,Rainwise IP-100,2017-10-21 06:51:00,
2017-10-21 02:56:00,77.9,78.0,30.06,East,90,1.0,4.0,100,0.00,,,0.00,Rainwise IP-100,2017-10-21 06:56:00,
2017-10-21 03:01:00,77.9,78.0,30.06,East,90,0.0,5.0,100,0.00,,,0.00,Rainwise IP-100,2017-10-21 07:01:00,
2017-10-21 03:06:00,77.9,78.0,30.06,East,90,5.0,5.0,100,0.00,,,0.00,Rainwise IP-100,2017-10-21 07:06:00,
2017-10-21 03:11:00,77.9,78.0,30.06,South,180,4.0,6.0,100,0.00,,,0.00,Rainwise IP-100,2017-10-21 07:11:00,
2017-10-21 03:16:00,77.8,77.0,30.05,ENE,67,2.0,4.0,100,0.00,,,0.00,Rainwise IP-100,2017-10-21 07:16:00,
2017-10-21 03:21:00,77.8,77.0,30.05,East,90,0.0,4.0,99,0.00,,,0.00,Rainwise IP-100,2017-10-21 07:21:00,
2017-10-21 03:26:00,77.7,76.0,30.05,NE,45,2.0,2.0,97,0.00,,,0.00,Rainwise IP-100,2017-10-21 07:26:00,
2017-10-21 03:31:00,77.7,77.0,30.05,NE,45,0.0,4.0,98,0.00,,,0.00,Rainwise IP-100,2017-10-21 07:31:00,
2017-10-21 03:36:00,77.7,77.0,30.05,North,360,0.0,4.0,98,0.00,,,0.00,Rainwise IP-100,2017-10-21 07:36:00,
2017-10-21 03:41:00,77.7,77.0,30.05,East,90,1.0,2.0,99,0.00,,,0.00,Rainwise IP-100,2017-10-21 07:41:00,
2017-10-21 03:46:00,77.7,77.0,30.05,ENE,67,0.0,3.0,99,0.00,,,0.00,Rainwise IP-100,2017-10-21 07:46:00,
2017-10-21 03:51:00,77.7,77.0,30.05,North,360,0.0,4.0,100,0.00,,,0.00,Rainwise IP-100,2017-10-21 07:51:00,
2017-10-21 03:52:00,77.5,77.0,30.05,NE,45,0.0,4.0,100,0.00,,,0.00,Rainwise IP-100,2017-10-21 07:52:00,
2017-10-21 03:57:00,77.4,77.0,30.05,ENE,67,2.0,3.0,99,0.00,,,0.00,Rainwise IP-100,2017-10-21 07:57:00,
2017-10-21 04:02:00,77.5,77.0,30.05,ENE,67,2.0,4.0,100,0.00,,,0.00,Rainwise IP-100,2017-10-21 08:02:00,
2017-10-21 04:07:00,77.6,77.0,30.05,East,90,0.0,2.0,100,0.00,,,0.00,Rainwise IP-100,2017-10-21 08:07:00,
2017-10-21 04:12:00,77.5,77.0,30.05,NE,45,2.0,3.0,100,0.00,,,0.00,Rainwise IP-100,2017-10-21 08:12:00,
2017-10-21 04:17:00,77.5,77.0,30.05,NE,45,1.0,2.0,100,0.00,,,0.00,Rainwise IP-100,2017-10-21 08:17:00,
2017-10-21 04:22:00,77.6,77.0,30.05,ENE,67,2.0,2.0,100,0.00,,,0.00,Rainwise IP-100,2017-10-21 08:22:00,
2017-10-21 04:27:00,77.7,76.0,30.05,South,180,0.0,2.0,97,0.00,,,0.00,Rainwise IP-100,2017-10-21 08:27:00,
2017-10-21 04:32:00,77.8,76.0,30.05,NE,45,1.0,2.0,97,0.00,,,0.00,Rainwise IP-100,2017-10-21 08:32:00,
2017-10-21 04:37:00,77.9,77.0,30.05,East,90,0.0,4.0,99,0.00,,,0.00,Rainwise IP-100,2017-10-21 08:37:00,
2017-10-21 04:42:00,77.8,77.0,30.05,East,90,0.0,2.0,100,0.00,,,0.00,Rainwise IP-100,2017-10-21 08:42:00,
2017-10-21 04:47:00,77.6,77.0,30.05,South,180,0.0,4.0,100,0.00,,,0.00,Rainwise IP-100,2017-10-21 08:47:00,
2017-10-21 04:52:00,77.6,77.0,30.05,South,180,0.0,2.0,100,0.00,,,0.00,Rainwise IP-100,2017-10-21 08:52:00,
2017-10-21 04:57:00,77.7,77.0,30.05,ENE,67,0.0,4.0,100,0.00,,,0.00,Rainwise IP-100,2017-10-21 08:57:00,
2017-10-21 05:02:00,77.8,77.0,30.05,East,90,7.0,7.0,100,0.00,,,0.00,Rainwise IP-100,2017-10-21 09:02:00,
2017-10-21 05:07:00,77.9,78.0,30.05,East,90,1.0,7.0,100,0.00,,,0.00,Rainwise IP-100,2017-10-21 09:07:00,
2017-10-21 05:12:00,77.9,78.0,30.05,East,90,1.0,2.0,100,0.00,,,0.00,Rainwise IP-100,2017-10-21 09:12:00,
2017-10-21 05:17:00,78.0,78.0,30.06,NE,45,0.0,2.0,100,0.00,,,0.00,Rainwise IP-100,2017-10-21 09:17:00,
2017-10-21 05:22:00,77.8,77.0,30.05,WNW,292,0.0,4.0,100,0.00,,,0.00,Rainwise IP-100,2017-10-21 09:22:00,
2017-10-21 05:27:00,77.6,77.0,30.05,North,360,0.0,2.0,100,0.00,,,0.00,Rainwise IP-100,2017-10-21 09:27:00,
2017-10-21 05:32:00,77.4,77.0,30.06,NE,45,0.0,4.0,100,0.00,,,0.00,Rainwise IP-100,2017-10-21 09:32:00,
2017-10-21 05:37:00,77.4,77.0,30.06,East,90,2.0,4.0,100,0.00,,,0.00,Rainwise IP-100,2017-10-21 09:37:00,
2017-10-21 05:42:00,77.4,77.0,30.06,East,90,1.0,4.0,100,0.00,,,0.00,Rainwise IP-100,2017-10-21 09:42:00,
2017-10-21 05:47:00,77.6,77.0,30.06,ENE,67,1.0,6.0,100,0.00,,,0.00,Rainwise IP-100,2017-10-21 09:47:00,
2017-10-21 05:52:00,77.8,77.0,30.06,East,90,1.0,4.0,100,0.00,,,0.00,Rainwise IP-100,2017-10-21 09:52:00,
2017-10-21 05:57:00,77.9,78.0,30.07,ENE,67,1.0,5.0,100,0.00,,,0.00,Rainwise IP-100,2017-10-21 09:57:00,
2017-10-21 06:02:00,77.5,77.0,30.07,ENE,67,0.0,7.0,100,0.00,,,0.00,Rainwise IP-100,2017-10-21 10:02:00,
2017-10-21 06:07:00,77.1,77.0,30.07,ENE,67,1.0,3.0,100,0.00,,,0.00,Rainwise IP-100,2017-10-21 10:07:00,
2017-10-21 06:12:00,76.8,76.0,30.06,East,90,0.0,2.0,99,0.00,,,0.00,Rainwise IP-100,2017-10-21 10:12:00,
2017-10-21 06:17:00,76.7,76.0,30.06,NNE,22,0.0,4.0,99,0.00,,,0.00,Rainwise IP-100,2017-10-21 10:17:00,
2017-10-21 06:22:00,76.7,76.0,30.06,South,180,1.0,4.0,99,0.00,,,0.00,Rainwise IP-100,2017-10-21 10:22:00,
2017-10-21 06:23:00,76.7,76.0,30.06,ENE,67,1.0,4.0,99,0.00,,,0.00,Rainwise IP-100,2017-10-21 10:23:00,
2017-10-21 06:28:00,76.9,76.0,30.06,East,90,1.0,3.0,99,0.00,,,0.00,Rainwise IP-100,2017-10-21 10:28:00,
2017-10-21 06:33:00,76.9,76.0,30.07,East,90,2.0,3.0,99,0.00,,,0.00,Rainwise IP-100,2017-10-21 10:33:00,
2017-10-21 06:38:00,76.9,76.0,30.07,ENE,67,1.0,2.0,99,0.00,,,0.00,Rainwise IP-100,2017-10-21 10:38:00,
2017-10-21 06:43:00,76.6,76.0,30.07,West,270,0.0,2.0,99,0.00,,,0.00,Rainwise IP-100,2017-10-21 10:43:00,
2017-10-21 06:48:00,76.3,76.0,30.06,NNW,337,0.0,3.0,99,0.00,,,0.00,Rainwise IP-100,2017-10-21 10:48:00,
2017-10-21 06:53:00,75.9,75.0,30.06,NE,45,1.0,2.0,99,0.00,,,0.00,Rainwise IP-100,2017-10-21 10:53:00,
2017-10-21 06:58:00,75.9,75.0,30.07,South,180,0.0,4.0,99,0.00,,,0.00,Rainwise IP-100,2017-10-21 10:58:00,
2017-10-21 07:03:00,76.1,75.0,30.07,South,180,0.0,4.0,99,0.00,,,0.00,Rainwise IP-100,2017-10-21 11:03:00,
2017-10-21 07:08:00,76.1,75.0,30.07,South,180,0.0,2.0,99,0.00,,,0.00,Rainwise IP-100,2017-10-21 11:08:00,
2017-10-21 07:13:00,76.1,75.0,30.07,South,180,0.0,3.0,99,0.00,,,0.00,Rainwise IP-100,2017-10-21 11:13:00,
2017-10-21 07:18:00,76.4,76.0,30.07,ENE,67,1.0,3.0,99,0.00,,,0.00,Rainwise IP-100,2017-10-21 11:18:00,
2017-10-21 07:23:00,76.7,76.0,30.07,NE,45,0.0,4.0,99,0.00,,,0.00,Rainwise IP-100,2017-10-21 11:23:00,
2017-10-21 07:28:00,76.8,76.0,30.07,North,360,0.0,2.0,99,0.00,,,0.00,Rainwise IP-100,2017-10-21 11:28:00,
2017-10-21 07:33:00,76.8,76.0,30.07,East,90,2.0,2.0,99,0.00,,,0.00,Rainwise IP-100,2017-10-21 11:33:00,
2017-10-21 07:38:00,76.9,76.0,30.07,East,90,0.0,6.0,99,0.00,,,0.00,Rainwise IP-100,2017-10-21 11:38:00,
2017-10-21 07:43:00,77.2,77.0,30.07,East,90,2.0,3.0,100,0.00,,,0.00,Rainwise IP-100,2017-10-21 11:43:00,
2017-10-21 07:48:00,77.4,77.0,30.08,ENE,67,1.0,2.0,100,0.00,,,0.00,Rainwise IP-100,2017-10-21 11:48:00,
2017-10-21 07:53:00,77.5,77.0,30.08,East,90,1.0,6.0,100,0.00,,,0.00,Rainwise IP-100,2017-10-21 11:53:00,
2017-10-21 07:58:00,77.5,77.0,30.08,East,90,2.0,5.0,100,0.00,,,0.00,Rainwise IP-100,2017-10-21 11:58:00,
2017-10-21 08:03:00,77.5,77.0,30.09,East,90,0.0,3.0,100,0.00,,,0.00,Rainwise IP-100,2017-10-21 12:03:00,
2017-10-21 08:08:00,77.1,77.0,30.09,East,90,1.0,2.0,100,0.00,,,0.00,Rainwise IP-100,2017-10-21 12:08:00,
2017-10-21 08:13:00,76.8,76.0,30.09,South,180,1.0,6.0,99,0.00,,,0.00,Rainwise IP-100,2017-10-21 12:13:00,
2017-10-21 08:18:00,76.9,76.0,30.09,NE,45,1.0,3.0,99,0.00,,,0.00,Rainwise IP-100,2017-10-21 12:18:00,
2017-10-21 08:23:00,77.2,77.0,30.09,ENE,67,1.0,4.0,100,0.00,,,0.00,Rainwise IP-100,2017-10-21 12:23:00,
2017-10-21 08:28:00,77.5,77.0,30.09,East,90,1.0,9.0,100,0.00,,,0.00,Rainwise IP-100,2017-10-21 12:28:00,
2017-10-21 08:33:00,77.9,78.0,30.10,NE,45,1.0,3.0,100,0.00,,,0.00,Rainwise IP-100,2017-10-21 12:33:00,
2017-10-21 08:38:00,78.3,78.0,30.10,East,90,2.0,2.0,100,0.00,,,0.00,Rainwise IP-100,2017-10-21 12:38:00,
2017-10-21 08:43:00,78.6,78.0,30.10,NE,45,1.0,3.0,100,0.00,,,0.00,Rainwise IP-100,2017-10-21 12:43:00,
2017-10-21 08:48:00,78.7,78.0,30.11,East,90,1.0,2.0,100,0.00,,,0.00,Rainwise IP-100,2017-10-21 12:48:00,
2017-10-21 08:53:00,78.6,78.0,30.11,North,360,0.0,7.0,100,0.00,,,0.00,Rainwise IP-100,2017-10-21 12:53:00,
2017-10-21 08:58:00,78.6,78.0,30.11,East,90,1.0,6.0,100,0.00,,,0.00,Rainwise IP-100,2017-10-21 12:58:00,
2017-10-21 09:03:00,78.7,78.0,30.11,East,90,0.0,6.0,100,0.00,,,0.00,Rainwise IP-100,2017-10-21 13:03:00,
2017-10-21 09:08:00,78.9,79.0,30.12,ENE,67,1.0,6.0,100,0.00,,,0.00,Rainwise IP-100,2017-10-21 13:08:00,
2017-10-21 09:13:00,79.8,79.0,30.12,East,90,0.0,5.0,100,0.00,,,0.00,Rainwise IP-100,2017-10-21 13:13:00,
2017-10-21 09:18:00,80.2,80.0,30.13,East,90,6.0,7.0,99,0.00,,,0.00,Rainwise IP-100,2017-10-21 13:18:00,
2017-10-21 09:23:00,80.4,80.0,30.13,NE,45,0.0,6.0,98,0.00,,,0.00,Rainwise IP-100,2017-10-21 13:23:00,
2017-10-21 09:28:00,80.4,80.0,30.13,East,90,0.0,5.0,99,0.00,,,0.00,Rainwise IP-100,2017-10-21 13:28:00,
2017-10-21 09:33:00,80.5,80.0,30.13,NW,315,0.0,5.0,99,0.00,,,0.00,Rainwise IP-100,2017-10-21 13:33:00,
2017-10-21 09:38:00,80.6,79.0,30.14,East,90,1.0,3.0,95,0.00,,,0.00,Rainwise IP-100,2017-10-21 13:38:00,
2017-10-21 09:43:00,80.6,79.0,30.14,NE,45,1.0,4.0,95,0.00,,,0.00,Rainwise IP-100,2017-10-21 13:43:00,
2017-10-21 09:48:00,80.7,80.0,30.14,East,90,1.0,5.0,97,0.00,,,0.00,Rainwise IP-100,2017-10-21 13:48:00,
2017-10-21 09:53:00,80.9,80.0,30.14,ENE,67,2.0,4.0,96,0.00,,,0.00,Rainwise IP-100,2017-10-21 13:53:00,
2017-10-21 09:58:00,81.2,80.0,30.14,NE,45,3.0,6.0,95,0.00,,,0.00,Rainwise IP-100,2017-10-21 13:58:00,
2017-10-21 10:03:00,81.3,79.0,30.14,East,90,2.0,5.0,94,0.00,,,0.00,Rainwise IP-100,2017-10-21 14:03:00,
2017-10-21 10:08:00,81.6,79.0,30.15,East,90,2.0,4.0,92,0.00,,,0.00,Rainwise IP-100,2017-10-21 14:08:00,
2017-10-21 10:13:00,81.7,79.0,30.15,NNW,337,2.0,7.0,94,0.00,,,0.00,Rainwise IP-100,2017-10-21 14:13:00,
2017-10-21 10:18:00,82.5,79.0,30.15,East,90,1.0,4.0,91,0.00,,,0.00,Rainwise IP-100,2017-10-21 14:18:00,
2017-10-21 10:23:00,83.4,78.0,30.16,North,360,2.0,6.0,85,0.00,,,0.00,Rainwise IP-100,2017-10-21 14:23:00,
2017-10-21 10:28:00,83.2,78.0,30.16,ENE,67,1.0,2.0,84,0.00,,,0.00,Rainwise IP-100,2017-10-21 14:28:00,
2017-10-21 10:33:00,83.4,78.0,30.16,NE,45,1.0,6.0,84,0.00,,,0.00,Rainwise IP-100,2017-10-21 14:33:00,
2017-10-21 10:38:00,83.5,78.0,30.16,East,90,0.0,4.0,85,0.00,,,0.00,Rainwise IP-100,2017-10-21 14:38:00,
2017-10-21 10:43:00,83.9,78.0,30.17,NE,45,1.0,6.0,82,0.00,,,0.00,Rainwise IP-100,2017-10-21 14:43:00,
2017-10-21 10:48:00,83.5,77.0,30.17,East,90,1.0,6.0,81,0.00,,,0.00,Rainwise IP-100,2017-10-21 14:48:00,
2017-10-21 10:53:00,83.6,77.0,30.17,East,90,0.0,4.0,83,0.00,,,0.00,Rainwise IP-100,2017-10-21 14:53:00,
2017-10-21 10:58:00,84.2,76.0,30.17,NE,45,2.0,7.0,77,0.00,,,0.00,Rainwise IP-100,2017-10-21 14:58:00,
2017-10-21 11:03:00,84.3,77.0,30.17,East,90,1.0,5.0,79,0.00,,,0.00,Rainwise IP-100,2017-10-21 15:03:00,
2017-10-21 11:08:00,84.6,77.0,30.18,East,90,1.0,4.0,78,0.00,,,0.00,Rainwise IP-100,2017-10-21 15:08:00,
2017-10-21 11:10:00,84.6,76.0,30.18,East,90,1.0,7.0,75,0.00,,,0.00,Rainwise IP-100,2017-10-21 15:10:00,
2017-10-21 11:15:00,84.5,76.0,30.18,NE,45,6.0,6.0,76,0.00,,,0.00,Rainwise IP-100,2017-10-21 15:15:00,
2017-10-21 11:20:00,84.7,77.0,30.18,East,90,4.0,6.0,80,0.00,,,0.00,Rainwise IP-100,2017-10-21 15:20:00,
2017-10-21 11:25:00,84.9,76.0,30.18,East,90,1.0,4.0,77,0.00,,,0.00,Rainwise IP-100,2017-10-21 15:25:00,
2017-10-21 11:30:00,84.9,77.0,30.18,South,180,0.0,3.0,79,0.00,,,0.00,Rainwise IP-100,2017-10-21 15:30:00,
2017-10-21 11:35:00,85.1,76.0,30.18,NNW,337,1.0,6.0,75,0.00,,,0.00,Rainwise IP-100,2017-10-21 15:35:00,
2017-10-21 11:40:00,84.9,76.0,30.18,NE,45,1.0,7.0,76,0.00,,,0.00,Rainwise IP-100,2017-10-21 15:40:00,
2017-10-21 11:45:00,85.0,77.0,30.19,East,90,2.0,2.0,79,0.00,,,0.00,Rainwise IP-100,2017-10-21 15:45:00,
2017-10-21 11:50:00,85.3,76.0,30.19,ENE,67,1.0,5.0,75,0.00,,,0.00,Rainwise IP-100,2017-10-21 15:50:00,
2017-10-21 11:55:00,84.9,76.0,30.19,ENE,67,2.0,8.0,76,0.00,,,0.00,Rainwise IP-100,2017-10-21 15:55:00,
2017-10-21 12:00:00,84.5,76.0,30.19,North,360,1.0,7.0,77,0.00,,,0.00,Rainwise IP-100,2017-10-21 16:00:00,
2017-10-21 12:05:00,84.0,77.0,30.19,East,90,2.0,4.0,81,0.00,,,0.00,Rainwise IP-100,2017-10-21 16:05:00,
2017-10-21 12:10:00,83.6,77.0,30.19,East,90,1.0,3.0,83,0.00,,,0.00,Rainwise IP-100,2017-10-21 16:10:00,
2017-10-21 12:15:00,83.4,79.0,30.18,ENE,67,2.0,4.0,86,0.00,,,0.00,Rainwise IP-100,2017-10-21 16:15:00,
2017-10-21 12:20:00,83.2,78.0,30.18,North,360,1.0,3.0,84,0.00,,,0.00,Rainwise IP-100,2017-10-21 16:20:00,
2017-10-21 12:25:00,82.9,78.0,30.18,East,90,4.0,4.0,85,0.00,,,0.00,Rainwise IP-100,2017-10-21 16:25:00,
2017-10-21 12:30:00,82.6,78.0,30.18,NE,45,2.0,6.0,87,0.00,,,0.00,Rainwise IP-100,2017-10-21 16:30:00,
2017-10-21 12:35:00,82.5,77.0,30.18,East,90,2.0,6.0,86,0.00,,,0.00,Rainwise IP-100,2017-10-21 16:35:00,
2017-10-21 12:40:00,82.8,78.0,30.18,East,90,1.0,7.0,88,0.00,,,0.00,Rainwise IP-100,2017-10-21 16:40:00,
2017-10-21 12:45:00,82.9,80.0,30.17,East,90,1.0,3.0,90,0.00,,,0.00,Rainwise IP-100,2017-10-21 16:45:00,
2017-10-21 12:50:00,83.0,78.0,30.17,East,90,1.0,6.0,86,0.00,,,0.00,Rainwise IP-100,2017-10-21 16:50:00,
2017-10-21 12:55:00,83.2,78.0,30.17,East,90,1.0,3.0,86,0.00,,,0.00,Rainwise IP-100,2017-10-21 16:55:00,
2017-10-21 13:00:00,83.2,79.0,30.17,ENE,67,1.0,6.0,87,0.00,,,0.00,Rainwise IP-100,2017-10-21 17:00:00,
2017-10-21 13:05:00,83.3,78.0,30.17,NNE,22,0.0,7.0,86,0.00,,,0.00,Rainwise IP-100,2017-10-21 17:05:00,
2017-10-21 13:10:00,83.7,78.0,30.16,NE,45,1.0,7.0,84,0.00,,,0.00,Rainwise IP-100,2017-10-21 17:10:00,
2017-10-21 13:15:00,83.9,80.0,30.16,NE,45,0.0,6.0,87,0.00,,,0.00,Rainwise IP-100,2017-10-21 17:15:00,
2017-10-21 13:20:00,84.4,79.0,30.16,ENE,67,2.0,4.0,84,0.00,,,0.00,Rainwise IP-100,2017-10-21 17:20:00,
2017-10-21 13:25:00,84.8,78.0,30.16,North,360,0.0,6.0,81,0.00,,,0.00,Rainwise IP-100,2017-10-21 17:25:00,
2017-10-21 13:30:00,84.5,78.0,30.16,East,90,2.0,7.0,81,0.00,,,0.00,Rainwise IP-100,2017-10-21 17:30:00,
2017-10-21 13:35:00,84.5,79.0,30.16,ENE,67,1.0,7.0,85,0.00,,,0.00,Rainwise IP-100,2017-10-21 17:35:00,
2017-10-21 13:40:00,84.2,78.0,30.16,South,180,1.0,7.0,83,0.00,,,0.00,Rainwise IP-100,2017-10-21 17:40:00,
2017-10-21 13:45:00,83.9,78.0,30.16,South,180,2.0,6.0,84,0.00,,,0.00,Rainwise IP-100,2017-10-21 17:45:00,